THORAD AGENA D DEB, 5389

Orbit data source: Space-Track

THORAD AGENA D DEB, 5389 is space debris in SSO originally from a launch on Wed, 08 Apr 1970 UTC launched from the Air Force Western Test Range (AFWTR). Debris objects in space refer to the collection of defunct objects orbiting the Earth. Examples of debris include non-operational satellites, rocket bodies, and fragments generated from explosions, collisions, or faulty payload assembly.

Loading next visibility...
Identifier
5389, 1970-025KU
Orbit
SSO
Country
Flag of USUS
Related business
Manufacturer
Unknown
Mission
Spacecraft
Bus & Motor
Unknown
Mass
Unknown
Launch date (UTC)
1970-04-08 (56 years ago)
Launch vehicle
Unknown
Launch site
Air Force Western Test Range (AFWTR)
Object type
Payload
Rocket body
Debris
Shape & HBR
Unknown shape, 0.1 m
Radar Cross Section
Small (<0.1 m²)

Expand to show TLE details & history
Last TLE update: 12 hours ago

TLE from 12 hours ago
0 THORAD AGENA D DEB
1 05389U 70025KU  26036.08900767 -.00000007  00000-0  86899-4 0  9995
2 05389  99.8166  81.6647 0201895 253.4796 132.0160 13.11249370670118
Epoch: 2026-02-05T02:08Z
TLE epoch observation values (Epoch: 2026-02-05T02:08:10.262Z)
Latitude
26.79077°
Longitude
-90.61152°
Altitude
1,325.786 km
Speed
7.147 km/s
True Right ascension
05h 06m 42s
True Declination
26° 39' 46"
Sunlit
Object was in daylight at epoch
Visualization orbit readout
Latitude
Unknown
Longitude
Unknown
Altitude
Unknown
Speed
Unknown
Apparent Right ascension
Unknown
Apparent Declination
Unknown
Sunlit
N/A
Visualization observer readout
Local Sidereal Time
16:30:46
Azimuth
Unknown
Elevation
Unknown
Doppler factor
Unknown
Orbital elements
Apogee altitude
1,369.003 km
Perigee altitude
1,062.372 km
Semi-major axis
7,593.825 km
Eccentricity
0.02019
Inclination
99.8166°
RAAN
81.6647°
Arg. of periapsis
253.4796°
True anomaly
133.70605°
Mean anomaly
132.016°
Eccentric anomaly
132.86388°
Mean motion
3.27984 °/min
Orbital period
109.76 mins
BSTAR
0.000086899
Loading maneuver chart data...
Computing Atmospheric mass density...

Documentation

Showing up to 5 results
|